User: anonymous   Login
Location: Unspecified
(52.4361°N, 0.0000°E)
Time: 11:28:11
(UTC+00:00)
Language:

PCSat - Orbit

View from above orbital plane
View from above orbital plane
View from above satellite
View from above satellite

Ground track
Ground track

The orbit data is extracted from the following two-line orbital elements,

1 26931U 01043C   19203.68873439 -.00000034  00000-0  18569-4 0  9993
2 26931  67.0512 275.9521 0007202 276.5377  83.4904 14.30547474929831
Epoch (UTC): 22 July 2019 16:31:46
Eccentricity: 0.0007202
inclination: 67.0512°
perigee height: 785 km
apogee height: 795 km
right ascension of ascending node: 275.9521°
argument of perigee: 276.5377°
revolutions per day: 14.30547474
mean anomaly at epoch: 83.4904°
orbit number at epoch: 92983

The dashed part of the orbit path shows where the satellite is in the earth's shadow,  

DLR